Regional Weather Roundup
Issued by NWS

Home | Current Version | Previous Version | Text Only | Print | Product List | Glossary On
Versions: 1 2 3 4 5 6 7 8 9 10 11 12 13 14 15 16 17 18 19 20 21 22 23 24 25 26 27 28 29 30 31 32 33 34 35 36 37 38 39 40 41 42 43 44 45 46 47 48 49 50
000
ASUS43 KLMK 250910
RWRKY
KENTUCKY REGIONAL WEATHER ROUNDUP
NATIONAL WEATHER SERVICE LOUISVILLE KY
500 AM EDT FRI JUL 25 2014

NOTE "FAIR" INDICATES FEW OR NO CLOUDS BELOW 12,000 FEET
WITH NO SIGNIFICANT WEATHER AND/OR OBSTRUCTIONS TO VISIBILITY.

KYZ001>023-026-027-061>063-070>075-251000-
WESTERN AND SOUTH CENTRAL KENTUCKY

CITY           SKY/WX    TMP DP  RH WIND       PRES   REMARKS
PADUCAH        CLEAR     58  56  93 CALM      30.05S
HENDERSON      CLEAR     54  50  87 CALM      30.05R
OWENSBORO      CLEAR     59  53  80 CALM      30.06S
HOPKINSVILLE   CLEAR     58  55  88 N6        30.06R
BOWLING GREEN  CLEAR     57  54  89 CALM      30.05R
GLASGOW        CLEAR     56  55  97 CALM      30.05R
$$

KYZ024-025-028>034-038-045-046-053-251000-
NORTH CENTRAL KENTUCKY

CITY           SKY/WX    TMP DP  RH WIND       PRES   REMARKS
LOUISVILLE/SDF PTCLDY    64  56  75 VRB5      30.07R
LOUISVILLE/LOU CLEAR     61  55  81 NW3       30.08R
FORT KNOX      CLEAR     56  54  94 N2        30.06R
$$

KYZ035>037-039>044-047>052-055>060-089>105-251000-
NORTHEAST KENTUCKY

CITY           SKY/WX    TMP DP  RH WIND       PRES   REMARKS
LEXINGTON      CLEAR     56  53  90 N3        30.07R
COVINGTON      PTCLDY    60  50  69 E3        30.07S
FRANKFORT      MOCLDY    56  54  93 CALM      30.07R
$$

KYZ054-064>069-076>088-106>120-251000-
SOUTHEAST KENTUCKY

CITY           SKY/WX    TMP DP  RH WIND       PRES   REMARKS
JACKSON        FOG       60  58  92 CALM      30.07S VSB<1/4
LONDON         FOG       59  57  93 E3        30.07S VSB 1/4
SOMERSET       FOG       61  61 100 CALM      30.07S VSB 1/4
MIDDLESBORO    CLOUDY    61  60  97 CALM      30.07S FOG
MONTICELLO     FOG       58  58 100 CALM      30.07S VSB<1/4
$$



USA.gov is the U.S. government's official web portal to all federal, state and local government web resources and services.